Simultaneous Nadir Overpasses (SNOs) Predictions

Prediction of SNOs between GOES-17 and NOAA-19 Satellite Orbit:

Table of predicted SNOs for the next 14.0 days since TLE Epoch: 5/24/2019
Index Date Time (GOES-17) GOES-17 Lat,Lon NOAA-19 Lat,Lon Distance(km) Time Diff (sec)
1 05/27/2019 02:08:39 0.00,-137.17 -0.44,-139.11 221.77 80
2 05/28/2019 01:59:41 0.00,-137.16 0.20,-136.27 101.78 80
3 05/29/2019 01:48:04 0.00,-137.16 0.85,-133.43 425.22 80
4 05/30/2019 14:20:41 -0.00,-137.20 0.95,-141.24 461.42 80
5 05/31/2019 14:09:04 -0.00,-137.19 0.30,-138.40 138.54 80
6 06/01/2019 13:54:47 -0.01,-137.18 -0.40,-135.57 184.17 80
7 06/04/2019 02:16:05 0.02,-137.09 -0.79,-140.61 401.48 80
8 06/05/2019 02:04:28 0.02,-137.07 -0.14,-137.77 79.62 80
9 06/06/2019 01:55:30 0.03,-137.05 0.52,-134.93 242.05 80




NCC Satellite Simultaneous Nadir Overpasses (SNOs) Prediction Service
